Theta_e
317 315 317 321 321 324 329 336 337 333 332 322 319 322 319 321 323 322 320 320 322 320 321 321 321 320 318 320 322 324 324 323 326 327 326 333 336 333 335 341 346 344 344 343 342 343 343 344 344 344 344 343 343 341 340 340 340 339 338 337 338 339 340 339 339 339 337 337 336 336 335 334 336 337 337 336 336 335 335 335 336 335 336 335 334 331 327 325 324 322 318 316 315 315 316 315 313
319 317 319 323 321 326 337 340 333 327 328 319 316 321 318 321 322 320 320 320 321 319 321 322 321 321 319 319 322 326 328 327 330 331 331 332 332 331 336 341 344 344 342 343 342 342 343 344 344 343 344 343 342 341 340 340 340 339 338 339 338 338 339 339 339 338 338 337 336 335 334 333 333 335 336 336 335 335 334 334 334 335 336 334 333 330 327 326 324 322 318 314 314 311 309 310 313
321 321 322 324 326 329 339 340 327 324 325 317 315 319 319 321 321 320 320 319 320 320 321 322 321 319 319 320 321 325 328 330 331 331 332 331 331 332 337 340 342 344 342 342 342 342 343 343 344 343 343 343 342 341 340 340 340 340 339 339 339 339 338 338 338 338 337 336 335 332 332 334 333 333 334 335 334 334 333 333 333 334 334 333 333 331 328 325 322 320 317 314 311 306 303 304 310
322 324 324 325 337 336 337 334 329 329 321 319 317 317 321 321 321 320 320 320 321 321 320 320 320 316 320 321 319 322 324 329 332 333 333 332 335 334 336 340 341 344 343 342 342 342 343 343 343 343 343 343 342 342 341 340 340 340 339 339 339 339 338 338 338 337 337 336 334 330 332 334 333 332 331 333 333 333 332 332 332 333 333 332 332 331 328 326 320 315 314 314 309 302 301 302 305
321 324 323 325 339 336 332 329 332 332 318 323 322 315 321 319 320 320 319 320 319 321 320 319 318 316 321 322 322 326 325 326 331 334 334 334 336 336 337 340 342 343 342 342 341 342 343 343 343 343 344 343 343 342 341 340 340 340 339 339 339 338 338 337 337 337 337 336 334 331 333 334 333 331 328 329 332 332 332 333 332 333 333 330 331 330 328 326 319 312 311 313 307 300 300 301 301
321 324 325 325 331 327 333 327 322 322 316 326 322 314 320 318 320 319 317 317 317 320 319 319 319 320 324 324 325 329 328 326 331 334 333 334 338 338 337 338 341 343 342 342 339 341 343 342 343 343 344 343 343 342 342 341 341 341 340 339 339 338 338 337 336 336 336 335 334 331 333 333 332 330 328 329 331 332 332 332 331 331 330 327 328 329 328 325 319 312 309 311 306 299 300 300 300
323 326 330 334 332 328 336 325 317 321 318 322 320 317 319 317 319 318 318 317 317 318 317 319 319 323 322 322 325 328 331 330 333 334 331 334 338 338 337 337 341 342 342 342 340 341 343 342 343 343 344 343 343 342 342 341 341 341 340 340 339 339 338 337 336 336 335 335 334 333 333 333 333 331 330 331 331 332 332 332 331 329 326 326 328 328 328 325 319 313 309 310 305 299 300 300 301
324 326 334 341 337 334 333 323 320 325 321 318 319 320 319 319 319 316 317 317 317 316 317 317 318 322 318 320 324 325 330 332 334 334 331 333 338 338 337 339 341 343 342 342 341 342 343 342 343 343 343 343 343 343 342 341 341 341 340 340 339 338 338 337 337 336 335 335 335 334 334 334 334 333 332 332 332 332 332 332 331 328 326 328 330 329 329 325 319 314 310 309 304 299 300 300 301
324 327 335 338 332 330 327 320 319 321 320 319 318 320 319 320 320 317 316 317 317 316 318 317 319 324 318 319 322 319 325 331 333 333 333 332 337 339 338 341 342 343 343 342 342 342 343 342 342 342 343 343 343 342 342 342 341 341 340 340 339 337 337 337 337 335 333 334 335 334 334 334 334 335 333 333 333 333 333 333 331 329 329 329 330 329 328 324 318 315 311 308 304 300 300 301 301
327 326 332 336 328 322 319 318 318 319 319 320 318 318 319 319 319 317 317 317 318 318 317 317 319 322 318 318 319 316 320 328 331 332 334 332 333 338 340 340 341 343 342 341 340 340 340 341 341 342 343 343 343 342 342 342 341 341 340 340 338 338 336 336 336 335 333 333 333 333 334 334 334 335 334 334 333 333 333 333 331 331 331 330 329 329 327 322 317 316 313 309 304 300 299 300 301
332 329 334 338 327 319 320 320 318 320 319 319 318 318 319 319 319 317 318 317 318 319 317 317 317 318 317 317 317 314 315 324 330 330 333 332 330 334 339 340 340 341 340 340 340 338 337 336 339 341 342 342 342 342 342 342 341 341 341 340 339 338 337 335 335 334 334 334 333 334 333 334 334 334 335 335 334 333 333 333 332 332 331 330 329 328 325 320 317 317 314 311 305 301 299 300 301
331 331 336 329 322 320 323 323 320 320 319 319 318 318 319 319 319 317 318 317 317 319 317 317 315 316 317 317 315 311 311 317 325 329 330 332 330 329 334 338 339 338 338 339 339 339 337 336 338 341 341 341 342 342 341 342 341 341 341 340 339 337 337 335 334 333 334 334 334 334 334 334 334 334 334 334 334 334 333 333 332 332 332 330 329 327 324 320 318 317 316 313 307 302 299 299 300
328 330 334 324 325 327 323 323 321 321 318 319 319 317 318 318 318 316 318 318 318 320 316 316 315 317 318 316 315 312 311 311 319 328 328 329 328 326 329 333 336 337 337 338 338 338 339 340 339 340 341 340 342 341 340 341 341 341 340 340 339 337 337 335 334 332 332 333 334 334 334 334 334 333 333 333 335 334 334 333 332 332 332 330 329 327 325 322 319 317 316 315 311 304 300 299 300
328 328 332 326 328 327 325 323 321 323 317 318 318 317 319 317 317 317 320 318 317 318 315 314 315 318 316 314 316 316 313 311 316 325 326 326 325 324 326 329 333 335 336 336 337 337 339 341 340 340 340 339 340 340 340 341 341 340 340 340 339 338 337 336 334 331 330 332 333 333 333 333 332 332 332 332 334 334 334 333 333 332 331 330 329 328 326 323 320 319 317 317 315 309 302 299 299
326 330 331 325 325 321 324 325 324 326 319 317 318 317 319 316 318 319 320 319 316 315 314 315 314 317 317 316 319 316 312 312 315 323 326 323 322 322 322 325 327 330 332 333 336 337 338 339 339 339 339 339 338 338 338 339 340 340 340 339 339 338 337 336 335 332 329 330 331 332 332 332 331 331 331 331 332 333 334 334 333 332 331 330 329 328 327 324 322 321 320 319 318 315 309 303 299
325 334 331 321 321 317 320 325 325 324 319 318 317 317 319 316 318 319 317 318 317 315 315 316 314 315 317 317 316 312 312 314 315 321 325 323 322 321 319 320 321 322 324 326 331 334 335 337 338 339 338 339 338 338 337 337 338 338 339 339 339 339 338 337 335 333 331 329 329 330 330 331 331 330 330 330 331 332 333 333 333 332 331 331 329 328 327 324 323 323 322 321 320 319 316 312 306
333 339 329 321 320 316 317 322 324 323 319 319 316 317 319 316 318 317 315 318 318 315 314 314 312 312 314 314 312 311 314 315 316 320 322 323 322 320 318 319 318 319 319 320 323 326 330 333 337 337 338 338 338 339 339 339 339 339 338 338 338 338 338 337 336 335 333 331 330 329 330 330 330 330 331 331 330 332 333 333 331 331 331 331 329 328 327 325 324 324 323 323 322 321 319 318 314
339 336 324 321 322 318 318 320 323 323 319 318 316 318 319 317 318 317 315 317 316 315 314 312 311 311 311 311 312 313 315 316 316 317 318 319 318 317 317 317 318 317 318 318 318 320 323 328 334 336 337 338 338 339 338 339 340 340 339 338 338 338 338 336 336 336 335 334 333 332 331 330 331 333 334 333 332 332 332 331 331 330 331 330 329 329 328 325 325 325 324 323 323 322 321 319 318
332 333 326 320 322 320 318 318 320 320 319 319 318 319 320 318 318 317 316 316 316 318 315 312 312 311 311 311 312 314 314 315 316 315 315 315 315 315 315 316 316 316 317 317 317 317 319 323 329 332 335 337 338 338 338 338 339 339 338 337 337 337 337 336 336 337 336 336 335 335 334 333 334 335 336 334 333 333 332 331 331 330 329 329 329 329 328 326 326 325 325 324 323 323 321 320 319
327 334 328 319 320 319 316 319 318 318 319 320 319 319 319 318 317 317 317 316 317 320 317 315 314 312 312 312 311 313 314 314 314 314 314 313 313 314 314 315 315 316 316 316 317 317 317 319 323 328 332 335 337 338 337 337 337 337 337 337 337 336 336 336 337 337 337 336 335 335 335 335 335 335 335 334 334 333 332 331 331 330 329 329 329 329 329 328 327 325 325 325 324 323 321 320 320
325 329 324 317 320 320 318 319 319 318 319 320 319 317 317 317 317 317 317 316 318 318 316 317 316 312 313 312 310 312 312 313 313 313 314 313 313 313 313 315 315 315 316 316 316 316 316 317 318 323 329 332 335 337 336 336 336 337 338 337 339 338 336 337 338 337 337 336 336 335 334 335 335 334 334 334 334 333 332 332 331 330 329 330 330 329 329 329 328 327 325 325 325 323 322 321 320
323 321 320 319 320 320 318 319 320 319 319 320 319 317 317 316 317 318 317 318 321 318 314 314 314 311 312 312 310 311 311 312 312 312 313 313 313 312 313 313 314 315 315 315 315 315 317 318 318 319 326 332 334 335 335 336 336 337 338 338 339 338 337 337 337 336 336 335 335 335 334 335 334 333 333 333 333 333 333 332 331 331 330 330 330 330 330 329 329 327 325 325 325 323 323 322 322
324 320 318 320 320 319 318 319 320 319 319 319 318 317 316 317 317 318 319 319 318 315 312 312 311 310 311 310 310 310 310 310 311 311 312 312 312 312 312 312 313 314 314 314 314 316 318 320 319 316 322 332 334 335 335 335 336 336 337 337 337 337 336 336 336 335 335 335 335 334 335 335 334 333 333 333 333 333 333 332 331 331 331 330 329 330 330 329 328 327 326 325 324 323 323 323 322
324 321 318 319 319 319 319 320 319 318 319 317 316 316 316 318 316 319 322 316 313 311 309 309 309 309 309 310 309 309 309 310 311 311 311 312 311 311 312 312 313 313 314 314 314 317 319 321 321 317 321 331 333 333 334 335 336 336 336 336 335 334 334 335 334 333 334 334 334 334 334 334 334 334 333 333 333 332 331 331 331 331 331 330 330 330 330 329 327 327 327 326 324 324 323 323 322
322 320 318 319 318 319 321 321 319 318 318 316 316 317 318 319 315 318 320 312 310 310 307 307 308 308 309 310 310 308 308 310 311 311 311 311 311 311 311 313 313 314 314 315 315 318 319 321 322 322 325 330 331 332 333 334 335 335 334 334 333 333 333 332 332 332 332 332 332 332 333 333 333 333 332 332 331 331 330 330 331 330 330 330 330 330 329 329 328 327 326 326 325 324 323 322 321
319 319 318 319 318 318 320 321 319 319 318 317 317 318 319 318 314 316 316 310 310 309 309 310 309 310 310 311 309 307 308 309 310 310 309 309 310 311 311 313 314 314 315 316 316 318 319 321 323 325 326 328 329 331 333 332 332 332 332 331 330 331 330 330 330 330 330 330 330 331 331 331 331 331 331 330 330 330 330 330 330 329 329 329 329 329 328 328 327 327 326 325 324 323 322 321 321
317 319 319 319 320 319 318 319 320 319 318 317 317 318 318 316 315 317 314 309 310 310 310 310 311 311 311 310 308 307 307 308 309 309 308 308 309 312 312 313 314 315 316 316 317 318 320 323 324 326 327 328 330 331 331 330 330 330 329 328 328 329 328 329 329 329 329 328 328 329 329 329 329 330 329 329 329 329 328 328 328 327 327 327 327 327 326 326 326 326 326 324 324 324 323 322 321
317 318 318 321 321 319 318 318 319 317 316 318 318 317 316 314 315 318 314 309 309 310 310 310 311 311 311 311 309 306 307 308 308 308 307 307 309 313 313 314 315 315 316 315 316 318 320 324 325 325 326 328 330 330 329 328 327 327 327 327 327 327 328 328 328 327 327 326 326 327 328 328 328 328 328 327 327 326 326 326 326 325 325 324 324 324 325 324 324 324 323 323 323 323 323 322 320
317 317 319 323 322 320 320 318 319 318 316 318 316 316 318 315 315 317 312 308 309 310 311 311 311 311 311 312 310 307 306 307 307 306 307 307 308 313 313 314 316 315 314 315 316 317 320 323 324 324 325 327 329 328 328 327 326 326 326 326 327 327 327 327 327 326 326 326 326 326 327 327 327 327 327 326 326 325 324 324 324 323 322 322 322 323 323 322 322 322 321 321 322 322 322 321 321
318 317 317 322 323 325 322 317 318 318 316 317 315 318 325 321 315 313 309 309 310 310 311 311 310 311 311 311 311 309 306 305 306 305 306 306 307 312 313 314 316 315 313 314 315 317 319 322 323 323 324 326 327 327 327 326 325 325 325 325 325 325 325 324 324 324 325 324 325 325 326 326 325 325 325 325 324 323 322 322 322 321 320 320 320 320 321 320 320 319 318 319 319 319 319 319 319
320 319 322 322 321 330 326 315 318 317 315 316 316 319 325 324 315 310 309 309 310 311 311 310 310 310 310 310 310 310 306 304 305 305 304 305 305 310 313 313 315 315 313 314 314 315 318 321 322 322 323 325 325 325 326 326 325 325 324 323 324 323 322 322 321 322 322 322 322 322 323 323 323 323 323 323 322 321 321 320 319 318 318 318 317 317 316 316 316 315 314 315 315 315 314 314 315
320 319 330 328 320 332 329 314 318 318 314 314 316 319 321 321 316 310 310 310 311 311 310 310 310 309 309 309 310 309 306 304 305 305 304 303 305 309 312 313 314 314 314 314 313 314 316 318 320 321 322 323 323 324 324 324 323 323 322 321 322 321 320 319 318 319 319 319 320 320 320 320 320 320 320 320 320 318 318 318 316 315 315 315 314 313 312 311 310 309 307 308 309 309 309 310 310
326 320 330 331 321 327 325 316 318 318 315 313 315 320 321 320 316 311 310 310 311 311 310 310 309 309 309 308 308 308 306 305 304 304 303 303 304 309 313 313 313 314 315 314 313 314 314 315 318 319 319 320 321 322 321 321 321 320 319 318 318 317 316 316 315 316 316 316 317 316 316 316 316 316 316 316 317 315 314 313 312 312 312 311 311 310 309 306 304 302 300 300 302 302 303 304 305
332 322 322 328 325 323 322 321 319 317 317 315 314 317 319 319 315 311 311 310 311 311 310 310 309 308 309 309 308 307 307 306 305 303 303 303 304 309 313 313 312 312 313 313 312 313 314 315 317 316 316 317 318 316 315 317 318 317 316 315 315 314 313 312 312 313 313 313 313 312 312 312 312 312 312 313 313 312 311 311 310 310 310 310 309 307 303 300 297 296 296 295 297 298 298 300 303
335 328 324 326 326 324 323 323 319 316 317 316 316 316 316 317 315 311 310 309 311 311 310 310 309 309 308 308 308 307 307 306 304 303 303 303 304 309 313 312 311 310 311 312 311 311 313 315 315 313 313 315 315 312 312 314 314 315 314 312 312 311 309 309 310 311 310 311 310 310 310 310 310 310 310 311 311 310 309 308 308 308 309 308 307 304 301 298 295 294 294 293 294 295 295 298 303
334 332 331 328 326 325 324 322 319 317 316 317 317 316 316 316 316 314 310 310 310 310 311 310 310 309 308 308 307 307 307 305 303 303 303 303 304 309 311 310 310 309 310 311 310 309 309 310 311 310 308 310 312 312 311 311 311 312 311 310 309 308 307 308 308 308 308 308 308 308 309 309 308 308 307 308 308 306 305 304 304 304 305 305 304 303 300 297 294 294 293 293 293 294 294 297 302
324 324 327 327 325 325 325 323 319 316 318 320 318 317 318 317 318 318 312 310 310 310 310 311 311 309 308 308 308 308 307 304 302 303 303 302 303 307 308 309 310 309 309 310 309 308 307 307 307 306 305 306 309 310 310 311 312 310 308 307 306 304 305 306 305 305 306 305 306 306 307 306 305 304 303 303 302 300 299 298 299 300 302 302 302 301 298 295 293 293 292 291 292 293 293 293 298
321 321 322 324 325 324 325 321 318 317 318 323 323 318 320 319 319 320 314 310 311 310 310 310 310 309 309 308 308 308 306 303 302 302 303 302 303 304 306 308 310 308 307 308 307 306 306 306 306 305 305 305 307 309 311 312 311 310 309 307 304 302 302 304 303 302 302 302 303 303 303 302 301 300 298 298 297 295 295 294 294 295 296 297 297 296 294 292 291 291 291 290 290 290 290 291 293
322 323 321 324 327 325 325 323 318 317 319 325 327 322 321 320 319 320 317 313 311 310 310 310 310 310 309 308 308 308 306 303 303 302 302 302 302 303 304 306 309 309 306 306 307 306 305 305 305 305 306 306 306 308 311 311 309 309 309 306 303 301 299 300 300 298 299 300 300 299 299 298 297 295 294 294 293 293 293 292 292 292 292 292 292 291 291 290 290 290 290 290 289 289 289 290 291
324 324 321 325 328 324 325 325 320 317 319 322 324 322 319 318 319 320 318 314 312 311 310 311 312 311 309 308 308 308 305 303 303 302 301 302 302 303 303 305 308 308 306 306 306 306 305 305 305 305 306 305 305 306 309 309 307 306 305 303 302 301 297 296 296 295 296 297 296 295 295 294 293 293 292 292 292 292 292 291 291 291 291 291 291 290 289 289 289 289 289 289 289 289 288 289 290
328 328 324 326 327 324 324 324 321 322 324 321 320 323 325 323 321 320 319 315 312 313 312 312 314 314 310 309 308 306 305 303 303 303 302 301 301 302 303 304 307 307 305 305 306 305 305 305 305 304 305 304 303 305 306 306 305 302 299 298 297 296 293 293 293 292 292 293 292 292 292 291 291 291 291 291 291 291 291 291 290 290 290 290 290 289 289 288 288 288 288 288 288 288 288 288 288
327 330 328 325 325 325 325 324 323 328 333 327 321 328 336 335 328 324 322 319 316 316 315 313 315 315 312 310 309 306 305 303 302 302 302 301 301 301 302 303 305 307 305 304 305 306 305 305 304 304 304 303 302 303 304 305 305 302 299 296 293 291 290 290 291 290 290 290 290 290 290 290 290 290 290 290 290 290 290 290 290 289 289 289 289 288 288 288 288 287 287 288 287 288 288 287 287
325 329 330 327 324 324 324 323 324 331 335 326 321 329 334 331 326 324 325 322 319 318 315 314 314 314 311 310 308 306 305 304 302 302 301 301 301 300 301 302 304 306 304 303 304 305 304 304 304 303 303 302 301 302 303 303 303 300 298 295 292 291 290 289 289 289 289 289 289 289 289 289 289 289 289 289 289 289 289 289 289 289 288 288 288 288 287 287 287 287 287 287 287 287 288 287 287
330 328 331 331 325 324 326 324 326 333 333 326 324 328 328 326 324 323 323 324 322 318 315 314 313 311 310 309 308 306 305 304 302 302 302 301 301 300 301 301 303 305 303 302 303 303 303 304 303 303 302 301 301 301 301 301 301 298 295 293 291 290 289 288 288 289 289 289 289 289 288 288 288 288 288 288 288 288 288 288 288 288 288 288 288 287 287 287 287 287 286 287 287 286 287 287 286
329 327 331 333 328 329 331 328 328 329 328 328 328 326 326 329 329 325 321 322 323 320 317 314 311 310 310 309 308 306 305 303 302 302 302 301 300 300 301 301 302 303 303 302 302 302 302 302 302 301 301 300 299 298 297 297 298 296 293 291 290 289 288 288 288 288 288 288 288 288 288 288 287 287 288 288 288 288 288 288 288 288 287 287 287 287 286 286 286 286 286 286 286 286 286 286 286
325 326 330 334 333 333 331 329 329 328 327 329 328 326 326 329 330 326 322 323 325 321 318 315 311 310 309 308 307 306 305 303 302 301 301 301 301 301 301 301 301 302 302 301 301 300 300 300 299 298 298 297 296 295 295 294 294 294 292 291 289 288 288 287 287 287 287 288 287 287 287 287 287 287 287 287 287 287 287 287 287 287 287 287 287 286 286 286 286 286 286 286 286 285 285 285 285
324 328 333 335 333 332 332 330 328 328 327 327 328 327 325 329 333 329 324 326 326 322 320 319 314 311 309 308 306 305 304 303 303 301 300 300 301 301 300 300 300 300 300 300 300 299 298 297 297 296 296 295 295 295 295 294 293 292 291 290 289 288 287 287 287 287 287 287 287 287 287 287 287 287 287 287 287 287 287 287 287 286 286 286 286 286 286 286 286 286 285 285 285 285 285 285 285
326 333 333 331 331 332 331 326 325 328 329 328 327 325 323 327 333 332 325 324 324 323 322 322 319 313 309 308 306 305 304 302 302 302 300 299 298 298 298 298 299 299 298 298 298 298 297 296 296 296 295 295 296 296 295 294 292 291 290 290 289 288 288 288 287 287 287 287 287 286 286 286 286 286 287 287 286 286 287 286 286 286 286 286 286 286 286 286 285 285 285 285 285 285 284 284 284
327 330 329 327 328 331 331 327 326 327 327 325 323 323 324 325 326 327 325 322 323 325 322 321 320 314 309 308 306 304 303 302 302 301 301 299 297 296 296 297 297 297 297 297 297 297 297 296 296 296 296 295 296 296 295 295 293 291 290 289 289 288 288 288 288 287 287 287 287 287 287 287 286 286 286 286 286 286 286 286 286 286 286 286 286 285 285 285 285 285 285 285 284 284 284 284 284
324 324 327 328 327 330 333 330 328 329 328 323 318 322 326 326 326 324 323 321 321 323 322 320 318 314 310 307 305 304 303 302 301 301 300 298 296 296 296 296 296 296 296 296 296 296 296 296 296 297 296 295 296 295 294 294 292 290 290 289 289 288 288 288 288 288 288 288 288 287 287 287 287 287 286 286 286 286 286 286 286 286 286 286 285 285 285 285 285 285 285 285 284 284 284 284 284
321 322 327 329 330 335 335 332 331 332 331 322 316 323 330 331 329 323 320 320 319 320 320 317 314 311 309 306 305 304 302 301 301 300 299 297 296 296 295 295 295 295 296 296 295 295 296 296 296 296 296 295 295 294 293 293 291 290 289 289 289 288 288 288 288 288 288 288 288 288 287 287 287 287 286 286 286 286 286 286 286 286 286 285 285 285 285 285 285 285 285 285 284 284 284 284 283
321 324 326 327 330 332 330 329 327 325 327 323 320 326 330 327 323 319 317 316 316 317 317 314 313 310 308 306 304 303 302 301 301 300 299 296 295 296 295 295 295 295 295 295 295 295 295 295 295 296 295 294 294 293 292 291 290 289 289 289 288 288 288 288 288 288 288 288 288 288 287 287 287 287 286 286 286 286 286 286 286 286 285 285 285 285 285 285 285 285 285 284 284 284 284 284 283
322 323 324 324 327 328 328 328 324 321 326 327 323 326 328 324 321 319 317 316 315 316 314 313 313 309 307 306 304 303 302 301 300 300 298 296 294 295 294 295 295 294 295 295 294 295 295 295 295 295 294 293 293 292 291 291 290 290 289 289 289 288 288 288 288 288 288 287 287 287 287 287 287 287 286 286 286 286 286 286 286 286 285 285 285 285 285 285 285 284 284 284 284 283 283 283 283
323 324 323 321 325 329 330 331 328 327 329 327 324 326 327 325 324 320 316 316 319 318 313 311 310 308 307 306 303 303 302 301 300 299 297 295 294 294 294 294 294 295 295 294 294 294 294 295 294 294 294 293 293 292 291 290 290 290 290 289 289 288 288 289 289 288 288 287 287 287 287 287 286 286 286 286 286 286 287 287 286 286 286 285 285 285 284 284 284 284 284 284 284 283 283 283 283
322 325 323 324 330 330 328 329 330 331 331 329 329 327 325 324 325 323 318 318 321 319 314 312 310 308 306 305 304 302 301 300 299 299 297 295 294 294 294 294 294 294 294 294 294 294 294 294 294 294 293 293 292 292 291 291 291 290 290 290 289 289 289 289 289 288 287 287 287 287 287 286 286 286 286 286 287 287 287 287 286 286 285 285 285 284 284 284 284 284 284 284 283 283 283 283 283
320 320 318 323 329 328 327 327 328 331 331 330 331 328 325 324 324 325 323 321 320 318 314 312 310 308 306 305 304 302 301 300 299 298 297 296 295 294 293 294 294 294 294 294 294 293 293 293 293 293 293 292 292 292 291 291 291 291 290 290 289 289 289 289 288 288 287 287 287 287 287 287 286 286 286 287 287 287 287 287 286 286 285 285 285 284 284 284 283 284 283 283 283 283 283 283 283
320 320 320 322 322 323 326 325 326 331 331 331 330 327 327 328 323 321 322 323 320 317 315 313 309 307 306 305 303 302 301 300 299 298 297 295 294 294 293 293 294 294 294 294 293 293 293 293 293 292 292 292 292 292 291 291 291 290 290 289 289 289 289 288 288 287 287 287 287 287 287 287 287 286 286 287 287 287 287 286 286 286 285 285 284 284 284 283 283 283 283 283 283 283 283 282 282
320 320 321 321 321 323 326 325 325 326 327 330 330 327 328 329 323 318 318 320 318 315 315 313 310 308 307 305 303 302 301 300 299 299 297 295 294 293 293 293 293 293 293 293 293 293 292 292 292 292 292 291 291 291 291 290 290 290 289 289 289 288 288 288 287 287 287 287 287 287 287 287 287 286 287 287 288 287 287 286 286 286 285 284 284 284 284 283 283 283 283 283 283 282 282 282 282
Wind_Speed
9 8 7 7 8 8 6 3 3 3 4 4 2 3 2 3 4 4 5 3 3 2 2 1 2 3 6 8 9 9 6 2 1 3 2 2 4 5 7 12 14 13 11 15 16 16 15 14 13 13 12 11 11 10 10 10 11 11 11 11 11 11 11 11 11 11 11 12 12 12 11 11 12 12 12 12 12 12 13 13 13 13 13 14 15 16 18 19 18 17 16 15 13 11 9 8 7
9 8 7 7 6 4 2 3 4 2 5 3 1 3 2 4 6 5 5 4 1 3 1 3 4 6 9 10 9 10 8 7 4 4 3 4 4 5 9 12 13 10 9 13 15 16 16 15 13 12 12 11 11 10 10 10 10 10 11 11 11 11 11 10 10 10 10 11 11 11 10 10 11 11 11 11 11 11 12 12 13 13 13 15 16 16 19 19 18 18 16 15 14 12 10 9 9
10 9 8 8 4 3 1 3 4 2 5 4 1 1 2 6 6 5 5 4 1 3 1 4 5 5 7 8 6 7 3 4 6 4 3 3 2 4 8 10 11 11 9 11 14 15 15 15 14 13 12 11 11 10 10 10 10 10 10 10 10 10 10 10 10 10 10 10 10 10 10 10 11 10 11 11 11 11 11 12 12 14 14 15 16 16 18 20 19 18 16 15 14 12 11 11 10
8 9 10 7 3 3 3 3 3 5 4 4 2 2 3 7 7 6 5 3 1 2 2 3 4 3 7 8 3 5 3 1 6 4 2 2 3 5 7 9 10 12 9 10 14 14 13 14 14 13 12 11 11 11 11 10 10 10 10 10 10 10 10 9 9 10 10 10 10 10 11 11 11 10 10 10 10 10 11 11 12 14 16 15 15 15 18 20 20 19 16 15 13 12 12 12 11
8 8 7 3 3 2 2 2 2 5 2 4 3 1 5 7 7 6 4 2 3 5 3 3 3 2 6 5 1 3 2 2 6 7 3 3 5 5 7 10 12 13 8 8 13 13 11 12 13 13 12 11 11 11 11 10 10 10 10 10 10 10 10 10 9 9 9 10 10 10 10 10 10 9 10 10 9 9 11 11 12 13 14 13 14 15 17 20 21 20 17 14 13 12 12 13 12
10 8 2 1 2 1 3 3 3 4 0 3 5 3 6 7 7 7 4 2 3 4 5 4 4 4 5 3 4 4 3 1 3 6 3 6 7 6 8 10 13 12 9 8 11 12 9 11 12 11 12 10 10 10 10 9 10 10 10 10 9 10 9 10 10 9 9 9 9 9 9 9 9 9 10 10 9 9 10 11 11 11 11 11 13 14 17 19 20 20 18 15 13 13 13 13 14
9 7 2 3 2 1 5 3 2 3 2 2 6 5 7 7 7 8 5 3 4 4 5 4 6 7 3 1 4 6 9 7 5 4 4 8 7 8 11 12 12 10 11 10 10 10 8 10 10 9 10 10 10 10 9 10 10 9 9 9 9 9 9 10 10 9 9 9 8 8 7 7 7 8 9 9 9 9 9 10 10 9 9 11 13 14 16 19 19 20 19 15 13 13 13 14 14
4 2 1 4 3 3 5 3 2 2 1 2 4 5 7 7 6 7 6 3 1 2 4 3 7 7 2 2 4 5 13 13 9 7 7 8 9 14 16 14 13 10 12 12 10 10 9 9 9 9 9 9 10 9 10 9 10 9 9 8 8 9 9 9 10 9 9 9 8 7 7 6 6 7 8 8 8 8 9 9 9 8 8 11 13 14 16 18 19 20 19 16 13 14 14 15 15
1 1 2 4 2 3 4 2 2 2 2 2 3 3 4 5 5 5 5 4 3 2 4 2 6 6 1 6 5 2 10 12 10 10 9 9 11 17 18 16 15 14 13 11 10 10 9 8 8 8 8 9 9 9 9 9 9 9 9 8 8 9 9 9 10 10 10 9 8 7 6 5 5 6 7 7 7 8 9 9 8 8 9 12 12 14 16 17 18 19 20 17 14 14 14 15 16
2 1 2 3 2 4 3 1 1 2 2 3 3 3 2 2 4 5 6 5 4 4 4 4 7 6 6 5 3 1 5 7 11 11 9 8 10 14 17 17 15 15 14 11 10 7 7 7 7 8 9 10 9 9 8 8 8 8 8 8 8 9 9 9 9 9 9 9 8 7 6 5 5 6 6 6 7 7 8 9 8 8 9 11 12 15 17 17 18 19 20 18 14 14 14 15 16
3 3 2 4 4 2 2 3 2 3 4 3 2 1 1 1 4 5 6 5 4 5 3 5 8 5 5 4 1 2 6 7 10 11 8 6 8 12 15 15 15 15 14 12 10 7 5 6 7 9 11 10 9 9 9 8 8 9 9 9 9 8 8 8 8 8 8 8 8 7 5 5 5 5 6 5 6 7 8 9 9 8 8 10 13 16 17 17 18 19 20 19 16 14 15 15 16
3 4 4 4 1 1 3 5 4 4 4 4 1 2 1 4 5 2 5 5 4 6 4 4 4 5 5 2 3 2 7 7 7 10 7 4 6 10 13 15 15 15 14 13 12 9 6 5 7 10 12 11 10 9 9 8 8 9 9 9 9 8 7 7 6 7 7 7 7 6 5 4 4 5 6 5 5 6 7 8 8 6 7 10 13 16 17 17 17 19 20 20 17 14 14 15 15
3 1 5 2 2 3 4 5 4 4 3 2 3 2 2 5 3 1 5 6 5 6 3 4 1 6 5 1 2 2 5 6 4 8 6 4 5 8 11 14 15 15 14 14 13 12 10 9 8 10 10 9 9 8 8 8 8 8 9 9 9 9 8 6 5 5 6 6 5 5 4 4 4 5 6 5 4 5 6 6 7 6 7 10 13 15 16 16 17 19 20 20 20 16 14 14 15
2 1 5 1 1 3 4 4 3 4 1 4 3 2 2 3 2 4 7 8 5 3 1 3 3 6 4 2 1 3 4 5 4 7 6 5 7 10 11 12 13 14 13 13 13 12 12 11 10 9 8 8 7 7 7 8 8 8 9 9 10 10 9 7 6 4 5 5 5 4 3 3 3 3 4 5 5 4 5 6 6 6 6 9 12 14 14 15 17 18 19 21 21 19 15 14 14
2 1 4 2 3 2 2 3 4 5 2 3 2 3 4 1 3 7 6 6 1 1 2 5 5 3 3 4 3 4 3 3 4 9 8 6 10 12 12 11 11 10 10 11 12 12 12 11 11 11 9 7 7 6 6 7 7 7 8 8 9 10 10 8 6 4 5 5 5 4 3 3 2 2 2 4 4 4 5 6 5 4 5 8 10 11 12 14 16 17 18 20 21 20 17 15 13
3 3 5 3 2 0 2 2 5 5 2 4 3 4 5 3 3 5 2 6 3 3 4 5 5 3 3 3 4 2 2 2 5 10 10 8 11 13 14 13 12 10 9 8 10 11 11 11 12 12 11 9 7 6 5 6 6 7 7 7 8 9 10 9 8 5 5 5 4 4 4 3 2 1 1 2 3 4 6 6 4 3 4 6 8 9 11 13 15 15 16 18 19 19 19 17 14
4 4 5 3 1 1 1 1 4 4 3 4 2 3 5 1 3 2 1 7 5 4 6 3 5 5 5 4 6 5 4 4 8 11 11 11 12 14 15 14 12 11 9 8 8 9 9 11 12 12 12 11 9 7 7 6 5 6 6 7 8 8 9 8 8 7 5 5 4 4 3 3 3 2 2 3 4 5 7 6 4 4 4 4 6 8 10 12 13 14 14 16 18 18 18 18 16
5 3 4 1 0 1 2 1 3 4 5 4 3 3 6 4 0 0 3 8 5 5 6 4 7 7 7 9 9 8 8 10 11 13 12 11 11 13 13 11 10 9 7 6 5 6 7 10 12 12 12 12 11 9 7 6 4 5 5 6 8 9 8 7 7 7 6 5 4 3 2 3 4 3 3 4 5 6 7 6 5 5 4 4 5 7 9 11 12 13 13 14 16 17 16 16 17
4 3 4 0 2 1 2 2 2 3 6 5 3 4 6 6 3 1 2 4 4 5 4 3 6 6 6 9 12 11 12 13 12 14 16 13 12 12 12 10 8 7 6 5 3 3 4 8 11 13 13 13 13 10 8 8 6 5 4 5 8 9 8 7 8 9 8 6 5 5 3 4 5 6 5 4 5 8 7 6 6 5 5 5 5 7 9 11 11 11 11 13 14 14 14 14 15
2 4 4 2 4 2 4 4 4 2 6 7 3 4 5 3 2 2 3 5 5 4 3 3 4 4 4 6 12 14 14 15 13 14 15 14 14 12 11 10 8 6 5 3 1 1 3 6 9 12 14 13 13 12 9 8 6 5 4 7 9 9 10 9 9 10 8 6 7 7 5 4 5 7 7 6 7 9 8 8 7 6 6 5 6 7 9 10 10 9 8 10 12 12 11 12 13
2 3 4 4 3 3 3 3 5 3 6 7 4 4 4 2 1 3 4 4 1 3 4 4 7 8 7 5 10 14 14 15 14 14 14 13 13 13 12 9 7 5 2 1 2 2 1 4 6 9 14 15 14 14 11 7 7 7 6 8 10 11 12 12 10 10 8 7 8 9 7 6 5 5 5 6 7 8 9 10 7 6 6 6 6 7 8 8 7 7 7 7 9 9 9 10 11
3 1 4 3 4 3 3 2 4 3 5 6 5 4 1 1 0 2 5 4 4 4 4 4 8 9 8 7 10 13 13 13 13 13 13 12 11 11 10 8 6 4 3 1 2 2 5 5 5 7 13 17 15 14 11 7 9 11 10 11 12 11 12 13 11 10 8 7 8 9 8 7 7 6 6 6 6 7 9 9 6 6 6 6 5 5 5 5 6 7 8 6 6 7 7 8 9
3 1 1 3 4 4 3 1 2 3 6 4 4 2 1 3 2 2 5 4 4 5 6 7 8 10 11 10 10 10 10 11 12 12 12 12 10 9 8 7 5 5 5 4 4 6 6 5 4 6 13 17 16 14 9 8 11 13 13 14 14 13 12 13 12 11 10 9 9 9 9 9 9 9 9 8 7 8 9 8 7 6 6 6 6 4 4 5 8 8 7 5 6 6 6 7 9
5 0 2 3 2 5 4 3 2 4 5 3 3 2 2 4 2 0 4 3 4 7 8 9 10 12 13 10 8 8 10 11 12 12 12 12 10 9 8 7 6 6 7 7 7 6 5 6 6 7 14 17 16 12 8 10 13 14 16 16 16 15 14 14 13 12 12 11 11 10 11 12 11 11 10 9 9 9 9 8 9 9 7 7 6 5 5 6 8 8 6 5 5 4 5 7 9
4 1 1 1 0 3 5 5 3 2 3 2 3 1 4 6 4 1 4 5 5 7 8 9 9 10 10 7 7 8 9 11 13 13 13 11 9 8 8 7 7 7 8 7 7 7 6 6 6 8 15 16 14 12 12 14 16 16 17 18 18 16 15 14 14 14 14 13 13 13 12 12 11 10 10 10 10 10 10 10 11 10 8 8 7 6 6 6 7 7 6 4 3 3 4 6 7
1 2 1 1 2 3 5 5 5 4 3 2 3 3 6 4 3 2 4 8 6 6 7 6 7 7 7 6 6 8 8 9 12 13 13 10 8 8 8 8 8 9 8 7 7 8 7 7 7 9 12 13 13 14 16 17 17 18 18 18 18 16 16 15 14 14 14 14 13 12 12 11 11 11 11 11 11 12 13 12 11 10 9 8 7 6 6 5 5 5 5 4 4 4 5 5 4
2 2 2 2 5 5 3 5 6 5 3 4 5 4 5 3 2 3 3 7 7 7 7 5 7 6 6 5 6 9 9 9 11 12 12 10 8 9 9 8 8 9 8 8 8 8 8 9 10 12 12 13 15 16 18 18 19 19 18 18 17 17 16 14 13 13 13 13 13 11 11 12 12 13 14 13 13 14 14 13 12 11 10 8 5 5 5 4 4 4 4 4 4 3 3 4 3
1 3 4 6 5 5 4 6 6 4 2 5 7 3 3 2 2 5 6 8 7 8 8 6 7 6 6 6 5 8 9 10 10 11 11 9 8 9 9 8 8 8 8 9 8 7 10 11 13 16 17 16 17 19 19 19 20 20 19 18 17 16 14 13 13 13 13 13 13 12 13 13 13 14 14 14 14 15 15 14 14 13 13 11 8 7 7 7 7 7 6 4 4 3 2 2 3
1 3 2 7 6 5 7 6 5 6 3 5 7 2 4 3 4 3 7 9 7 8 8 6 7 6 6 6 5 6 9 11 11 11 11 9 9 9 10 9 8 8 9 9 8 8 11 12 14 17 20 19 19 20 20 20 20 20 19 18 17 15 13 14 15 16 16 15 14 14 14 14 14 14 14 13 14 15 15 15 13 14 13 12 11 9 9 9 9 9 8 6 6 4 3 3 2
1 1 2 3 6 5 7 4 6 7 3 5 7 2 6 6 5 3 7 9 8 8 7 6 6 6 6 5 5 5 8 11 11 12 11 10 9 9 10 10 9 10 10 9 9 10 12 13 14 16 20 21 21 21 20 19 19 19 19 19 17 14 14 15 17 18 18 17 17 17 16 15 16 15 14 14 14 14 15 15 15 14 13 11 11 11 11 11 10 10 9 8 7 6 5 4 3
1 1 1 1 2 5 7 1 8 7 1 4 7 1 6 7 5 5 7 8 9 8 8 7 6 6 6 5 5 5 6 10 12 12 11 10 9 9 11 11 11 11 10 10 10 12 13 15 15 15 18 20 22 22 20 18 18 18 19 19 17 15 16 17 18 19 19 18 18 18 17 16 17 16 15 15 15 15 15 16 16 15 14 13 14 15 15 14 12 12 11 9 9 8 7 7 6
1 1 3 2 2 5 6 1 8 7 1 3 6 2 7 7 5 7 6 7 8 8 8 8 7 7 7 6 6 5 5 10 13 12 11 9 9 9 11 13 13 13 11 10 10 13 14 16 16 16 17 20 21 22 21 21 21 20 20 21 19 19 20 20 20 20 20 19 18 19 18 18 18 17 17 16 17 17 17 18 18 17 16 16 18 18 17 16 15 15 15 13 11 10 9 8 7
2 2 3 2 2 3 4 2 4 7 4 2 3 3 4 5 5 7 7 8 8 7 8 9 8 8 8 6 6 6 5 8 10 12 12 9 8 9 11 13 14 13 13 11 12 15 17 17 18 18 19 21 23 24 23 24 24 23 23 23 22 22 23 22 22 22 22 22 21 22 21 21 20 20 19 18 19 19 19 21 20 19 19 19 19 19 18 19 17 18 19 18 15 14 12 11 9
4 0 3 4 3 2 2 4 4 5 6 4 5 4 6 5 4 8 8 9 9 8 9 10 9 8 7 7 6 6 6 6 7 11 13 10 9 10 12 14 14 14 14 13 13 15 17 17 18 21 21 22 24 27 27 26 25 25 25 24 23 24 25 25 24 24 24 24 24 24 23 23 22 21 21 20 20 21 21 21 21 20 19 19 20 20 21 20 19 20 21 21 20 18 17 15 11
3 3 2 4 3 2 3 4 3 6 5 4 5 5 10 9 5 7 8 9 10 10 10 9 9 9 8 8 7 7 7 6 8 13 14 12 11 12 15 15 15 15 14 14 15 16 17 17 18 22 24 24 25 26 28 28 27 26 25 25 25 26 26 26 26 26 26 25 25 24 23 23 22 21 21 20 21 22 21 21 20 19 19 19 20 21 20 20 20 20 21 22 21 21 20 17 15
6 5 4 4 3 4 4 4 4 7 5 5 7 7 10 11 8 8 8 9 10 10 7 6 7 8 7 7 7 8 8 7 10 16 15 13 13 14 17 16 15 16 16 17 17 17 19 20 20 22 23 24 26 26 27 28 27 27 27 27 27 27 27 27 26 26 25 25 24 23 22 22 22 21 21 21 21 22 22 22 21 21 20 20 21 21 20 19 19 20 20 20 20 21 22 19 18
4 3 3 4 4 5 4 3 4 4 4 6 8 8 9 9 9 9 9 8 9 10 9 8 8 8 9 9 9 8 7 7 13 17 16 15 14 15 17 17 17 18 19 19 19 19 20 20 21 22 22 23 25 26 26 26 26 28 28 28 28 27 26 26 26 25 24 24 23 22 23 22 22 22 22 22 23 25 26 25 25 24 23 22 23 22 20 19 19 19 20 21 21 23 25 22 17
6 4 4 4 3 5 5 3 3 2 2 6 5 6 9 9 9 8 7 8 11 13 12 12 11 10 9 9 9 7 6 7 11 14 16 16 15 16 18 19 20 20 20 20 20 20 20 20 21 21 21 23 25 26 26 26 27 28 27 28 29 28 26 26 26 26 25 25 24 24 24 24 24 25 25 26 27 27 28 28 27 26 25 24 24 22 21 20 20 19 20 22 24 25 26 24 19
7 5 3 5 4 4 5 4 2 0 2 4 5 5 8 9 9 8 7 11 12 14 16 14 13 13 11 11 10 9 8 8 8 10 15 17 17 18 19 19 21 22 21 21 21 21 21 21 21 21 22 23 24 25 26 27 27 26 27 29 29 28 27 27 27 27 27 27 27 26 26 26 27 28 28 27 28 28 27 28 27 27 26 24 24 23 23 22 22 21 21 21 22 24 25 24 23
5 4 3 4 4 2 3 5 4 2 1 2 4 5 7 8 7 9 11 11 9 10 13 12 10 12 13 12 11 12 13 11 9 9 12 17 18 19 20 20 22 23 21 21 22 22 22 22 22 22 23 23 23 24 26 27 28 27 28 28 28 29 29 29 30 30 29 30 30 29 29 28 28 28 28 27 27 27 26 27 26 26 25 23 23 24 24 23 22 21 21 20 21 22 23 23 22
4 5 5 4 4 5 6 3 2 3 4 3 3 6 7 6 7 11 8 5 6 7 9 10 9 9 9 9 10 11 13 12 12 11 12 16 19 20 21 22 22 24 22 21 22 22 22 22 22 22 23 22 22 24 26 28 29 30 31 31 30 31 31 31 32 32 31 32 31 30 29 28 28 28 27 26 26 26 26 26 25 25 25 24 24 25 24 23 22 21 21 20 21 21 21 22 21
4 4 7 7 6 7 6 1 3 4 5 3 1 3 7 4 5 9 4 1 6 5 7 11 10 7 8 9 10 10 10 10 11 12 13 16 19 20 21 22 23 24 22 20 22 22 22 22 21 22 22 22 22 24 27 28 29 31 33 34 34 33 31 30 32 32 32 32 32 31 29 28 27 27 26 26 25 25 25 25 25 25 25 24 24 24 24 22 21 21 20 20 20 19 19 21 21
3 5 6 8 8 7 6 2 1 1 5 3 3 2 7 6 5 9 6 5 9 7 7 11 9 8 10 10 10 10 10 9 9 11 13 16 18 20 21 22 24 25 23 20 21 21 21 21 21 22 23 23 23 25 28 28 30 31 33 35 35 35 33 30 31 32 32 32 32 31 30 28 27 26 26 25 25 24 24 24 24 24 24 24 23 23 23 22 21 20 18 18 19 18 17 20 19
4 5 4 6 7 7 6 4 2 3 3 4 2 2 5 9 7 7 8 9 11 9 10 11 9 9 9 9 9 11 11 11 10 10 12 16 19 21 22 23 25 26 24 21 21 21 21 21 21 22 23 24 25 27 29 29 31 33 34 35 34 35 35 34 33 33 33 32 32 31 29 28 26 26 25 25 24 23 23 23 23 23 23 22 21 22 22 20 19 18 17 17 17 17 17 19 18
6 5 5 5 5 5 4 4 2 1 2 4 3 2 3 9 6 2 4 7 10 11 13 14 12 11 9 9 9 10 10 11 11 11 12 17 20 22 24 25 25 26 25 22 23 22 21 22 23 24 25 27 28 29 29 29 31 35 36 36 35 33 35 35 34 33 33 32 32 30 29 28 26 25 24 24 23 22 22 22 21 21 22 21 21 21 20 18 17 17 16 16 16 17 17 16 17
4 3 6 6 4 4 5 4 3 3 2 5 6 4 3 8 5 2 1 4 9 11 12 12 12 12 11 9 9 9 9 9 9 11 14 18 21 23 24 25 25 26 25 24 24 24 24 26 28 29 29 30 30 28 26 27 31 35 36 37 37 36 35 35 34 34 32 32 31 30 28 27 26 25 24 23 22 21 20 20 20 21 21 21 20 19 18 17 16 16 16 16 15 16 16 15 16
5 6 6 7 6 5 4 3 4 2 5 6 9 10 7 6 4 4 4 5 7 8 8 8 8 11 12 10 9 9 8 8 8 9 14 18 21 22 24 25 26 26 25 25 25 26 28 30 31 31 31 30 28 25 24 25 30 35 36 37 39 39 38 37 36 34 33 32 31 30 28 27 25 24 23 22 21 20 19 19 19 20 20 19 18 17 17 16 15 15 15 14 14 15 15 14 15
6 5 5 3 4 4 4 4 4 1 7 6 10 12 10 8 6 3 5 5 5 6 7 7 9 11 12 11 10 10 9 9 9 9 11 16 18 21 24 25 26 27 26 26 27 28 30 31 32 32 30 28 26 25 25 26 29 33 35 37 38 39 38 38 37 35 33 32 31 30 28 27 25 24 22 21 20 19 18 19 18 19 18 18 17 16 15 15 14 13 13 13 13 13 13 12 13
5 5 6 3 2 3 3 2 0 4 7 4 7 8 6 9 9 6 9 10 7 6 6 7 9 11 11 11 11 11 10 10 11 10 10 13 16 20 24 25 27 28 28 28 29 29 31 32 32 32 29 27 27 26 26 28 30 34 35 36 37 37 37 36 36 35 33 32 31 30 28 27 25 23 22 21 20 18 17 17 17 17 17 16 15 14 14 13 12 12 12 12 12 11 11 11 11
5 6 6 5 3 1 3 4 2 4 6 4 3 5 3 6 6 10 15 14 9 5 5 7 8 11 11 11 11 10 10 11 10 11 10 11 16 21 24 26 27 28 29 29 30 31 32 32 32 32 30 28 27 27 28 30 33 34 35 36 36 36 35 35 34 33 32 30 29 28 27 25 24 23 22 20 19 17 17 16 16 16 16 15 14 13 12 11 11 10 10 10 10 10 10 10 10
5 5 6 5 5 4 4 4 3 4 4 4 1 3 4 3 3 7 9 8 5 2 4 2 3 6 8 8 9 10 10 10 9 10 10 12 18 22 23 25 27 28 30 31 31 32 33 33 33 33 31 29 29 29 30 33 35 35 35 35 35 35 34 33 32 31 30 29 28 27 25 24 23 22 21 20 18 17 16 16 15 15 14 13 12 11 10 9 9 8 8 8 9 9 8 9 9
3 3 5 3 5 5 3 2 4 2 2 3 2 4 5 4 5 6 3 4 4 4 2 4 4 5 7 7 9 10 10 10 9 10 10 12 18 22 23 25 26 28 31 32 33 33 34 34 33 33 32 31 30 31 33 35 36 35 34 35 34 33 33 32 32 30 29 28 27 26 25 24 23 22 21 20 18 16 15 15 14 13 12 11 10 9 8 7 6 6 6 6 7 7 7 7 8
2 2 4 4 4 5 2 3 1 2 3 4 4 5 5 3 8 8 4 2 4 4 2 5 5 6 8 8 9 10 10 10 10 10 10 12 17 20 23 26 27 30 32 33 34 34 35 35 34 33 32 31 31 33 34 35 36 35 34 34 34 33 33 32 31 30 29 27 26 25 25 23 22 21 20 19 17 16 14 13 12 11 10 8 7 7 5 5 5 5 5 5 5 6 5 5 6
6 4 5 2 2 2 2 1 3 2 4 5 3 7 5 2 6 4 5 3 8 7 5 4 4 7 9 9 9 10 10 9 9 10 10 14 19 21 23 26 29 31 33 33 34 34 34 34 34 34 34 34 34 34 36 36 36 36 35 35 34 34 33 32 31 30 29 28 27 25 24 23 22 21 19 18 16 15 13 12 10 9 8 7 6 5 4 4 4 4 5 5 5 4 4 4 4
5 4 4 4 2 1 2 2 2 2 4 5 3 6 6 7 6 1 5 8 11 10 7 6 8 10 10 9 9 9 9 9 9 10 10 13 20 23 25 27 28 31 31 32 33 33 33 33 33 34 34 35 35 35 36 36 36 37 36 35 35 34 33 31 31 30 30 29 27 26 24 23 22 20 19 17 15 13 12 10 9 7 7 6 5 5 5 4 4 4 4 4 4 4 3 2 2
2 1 2 2 2 3 4 3 2 3 3 5 4 3 5 7 7 8 10 13 14 12 9 10 12 13 11 10 10 10 11 11 11 12 11 13 20 25 27 28 30 31 32 32 33 33 33 33 33 34 34 34 35 36 36 36 36 36 36 36 35 34 33 32 31 31 30 29 27 26 24 23 22 20 18 16 14 12 11 10 9 8 7 7 6 6 5 5 4 4 4 4 3 3 2 2 1
3 3 4 2 1 2 1 2 3 4 3 3 5 8 7 4 5 10 13 13 14 13 12 12 13 12 11 10 11 11 12 12 11 12 11 13 20 24 26 28 29 30 31 32 33 33 33 34 34 35 36 36 36 36 37 37 36 36 37 37 35 34 33 32 32 31 30 28 27 26 24 23 22 20 18 16 13 12 11 10 9 8 8 8 7 7 6 6 5 5 4 4 3 3 2 2 2
6 7 8 8 6 4 1 4 3 3 4 4 3 9 11 4 4 8 11 12 12 12 13 13 11 12 12 11 12 13 12 12 12 12 11 13 19 23 25 28 29 31 32 33 34 34 35 35 36 36 36 37 38 38 38 37 37 37 37 36 35 35 34 33 32 31 30 29 27 26 24 23 21 20 17 15 13 12 11 10 10 9 9 9 8 7 7 6 6 5 4 3 3 3 3 2 2
Wind_Direction
343 339 350 355 356 349 335 66 66 332 78 84 103 96 59 90 94 72 48 34 61 315 278 88 29 47 88 104 108 89 42 11 135 121 155 190 123 126 114 120 148 155 149 156 159 158 154 153 152 150 147 144 138 134 130 124 116 112 107 101 99 101 97 94 93 91 90 88 86 86 85 87 89 85 83 80 75 70 68 67 68 68 69 71 66 56 49 48 45 40 36 36 37 39 42 41 40
354 354 13 359 349 15 313 85 83 347 55 66 27 101 112 67 68 79 76 74 127 246 276 57 55 66 95 113 103 76 38 6 43 100 112 107 118 129 115 124 149 157 152 156 163 160 156 156 155 156 154 150 143 137 134 127 121 115 110 105 102 102 100 101 99 97 94 92 91 87 83 84 89 89 88 84 77 70 66 65 66 68 67 65 60 52 45 43 41 38 35 34 39 45 49 51 51
5 7 10 10 3 54 51 46 79 76 71 95 350 317 96 79 96 111 107 107 197 242 40 35 46 50 77 77 60 70 66 9 34 71 90 82 90 102 118 124 142 161 156 153 165 162 160 159 157 161 159 155 148 141 138 133 129 122 116 112 110 108 106 106 102 102 100 97 92 83 80 78 80 84 87 85 80 72 67 66 65 66 64 60 58 50 39 34 34 34 33 34 40 49 55 59 61
4 7 354 7 35 30 50 49 96 106 102 140 70 335 101 110 126 116 125 127 39 56 67 52 53 25 74 77 57 71 85 16 26 51 92 72 80 90 114 111 136 159 148 150 166 164 163 161 159 161 160 158 154 149 144 141 139 132 126 121 117 116 112 109 104 105 103 99 92 82 81 79 77 76 82 85 82 74 70 68 63 64 61 58 56 46 33 28 28 30 33 35 42 53 59 64 66
0 8 347 14 74 29 77 68 77 92 130 174 120 139 124 126 127 117 143 130 70 79 84 82 87 40 72 67 41 67 338 287 41 55 87 116 108 110 120 115 134 148 143 151 165 167 166 163 162 162 161 158 159 156 148 146 145 140 134 128 122 122 120 115 109 110 109 105 100 92 88 85 82 75 77 84 85 79 75 72 68 71 68 60 55 41 29 26 28 31 33 38 47 56 61 66 68
358 10 20 71 104 146 82 60 58 67 221 160 128 168 140 131 131 129 129 86 58 86 93 73 104 96 73 47 65 72 330 261 82 48 84 133 114 117 132 129 134 142 150 150 156 162 161 167 167 164 164 160 160 157 151 152 149 143 137 132 127 125 125 120 113 115 115 112 110 106 101 92 88 83 81 84 88 85 80 78 77 79 73 61 53 38 29 29 30 33 35 41 50 58 64 67 69
352 4 53 53 4 68 82 102 108 69 357 109 134 151 135 134 135 129 124 85 15 32 83 94 120 100 76 126 83 50 41 70 96 49 101 129 106 110 129 134 137 143 156 156 154 155 153 167 171 168 170 167 163 160 159 158 151 146 141 136 130 128 127 125 120 119 119 119 119 115 114 105 98 95 94 94 95 94 86 84 84 79 65 56 50 38 33 33 33 36 38 43 52 58 62 67 70
354 6 62 73 24 30 85 106 105 128 32 53 135 146 133 132 127 127 136 129 102 19 42 83 110 89 2 81 100 57 56 67 80 76 100 120 106 113 126 131 133 132 147 158 156 158 159 165 174 174 175 173 169 166 165 161 156 150 144 140 135 131 128 131 129 127 126 126 125 120 121 118 111 101 102 102 101 102 94 92 89 78 65 57 50 42 39 35 36 38 39 44 55 59 60 65 68
70 80 37 75 53 44 81 84 68 124 117 78 96 116 124 117 113 122 121 98 129 107 20 18 93 100 119 71 95 82 54 68 85 84 91 112 116 120 125 120 123 125 130 143 145 154 158 166 179 174 176 177 171 171 168 163 163 157 147 144 140 134 130 135 137 137 136 136 134 128 127 126 118 105 104 106 109 108 99 97 89 79 69 60 52 46 42 38 39 41 41 44 56 62 62 64 67
61 63 71 77 58 71 79 98 105 118 143 144 108 109 132 97 88 99 112 106 121 102 9 33 80 112 138 90 92 42 48 82 90 83 88 110 122 131 132 117 116 123 120 123 127 141 155 173 190 181 177 176 173 173 172 169 169 164 155 152 146 136 133 137 140 144 143 144 144 138 136 126 117 111 110 111 114 113 104 98 89 82 70 58 53 49 45 43 43 44 44 46 55 63 63 64 67
42 347 86 77 43 72 160 149 136 137 143 132 70 78 164 86 77 83 103 107 98 86 3 43 85 120 110 79 147 79 72 90 85 81 90 112 127 140 145 130 119 122 124 122 121 121 142 178 191 189 180 174 176 173 173 175 177 173 166 160 150 140 137 136 137 145 147 150 151 146 143 124 113 112 109 113 117 114 109 102 91 82 67 57 53 50 48 46 46 48 47 48 55 64 66 66 68
65 337 62 80 71 209 181 145 150 144 122 105 83 278 98 62 61 76 99 98 80 76 30 27 112 132 91 69 197 137 60 65 82 86 97 120 124 135 149 149 136 129 127 131 133 126 126 158 182 189 183 172 171 176 178 177 182 178 169 163 154 145 141 139 135 139 145 156 159 152 145 124 112 100 90 97 116 117 114 108 98 87 70 59 53 51 50 48 48 50 49 50 54 62 67 68 70
93 19 78 90 195 141 124 131 161 131 105 154 174 228 80 65 63 129 101 79 61 83 32 335 108 97 93 131 166 192 25 37 91 100 109 113 104 117 139 155 155 146 135 136 140 139 143 154 170 188 190 176 167 178 185 179 181 178 170 168 162 155 149 147 140 134 143 155 160 157 152 136 120 101 84 84 105 120 123 115 107 99 79 63 56 54 50 49 51 52 52 52 53 58 65 67 70
107 134 102 120 304 110 121 119 159 124 143 239 189 180 77 87 120 103 96 73 38 116 111 5 83 90 103 142 133 257 340 20 116 122 120 102 99 101 111 137 154 157 150 146 143 143 151 156 161 172 187 190 187 194 194 186 182 180 177 175 170 163 158 153 143 130 136 151 161 164 162 155 143 119 92 85 96 119 133 127 115 106 85 68 61 55 50 52 54 54 53 53 54 55 60 64 68
122 126 94 87 354 53 144 142 154 125 149 232 186 142 79 75 113 81 96 111 68 214 103 35 52 102 140 161 188 244 324 30 124 137 135 111 103 95 92 108 125 140 149 157 155 150 150 155 158 159 171 185 196 203 199 195 188 187 185 180 176 171 166 157 150 133 123 141 167 180 188 187 182 156 106 95 103 126 146 141 127 111 88 71 63 56 52 56 57 56 54 52 54 55 56 59 61
105 100 74 63 338 350 209 152 122 106 191 216 191 121 80 345 56 86 144 135 114 359 43 16 12 86 114 142 168 182 14 39 139 149 148 133 116 104 94 96 101 106 121 141 156 161 160 161 160 159 167 172 180 191 196 195 190 194 193 185 179 178 177 168 160 154 137 142 165 183 199 208 213 196 173 153 136 141 153 150 140 117 96 77 66 59 57 60 60 57 53 49 49 52 53 54 54
63 73 68 48 293 180 266 91 130 150 192 211 206 112 106 327 6 96 60 82 92 34 52 29 22 72 93 116 134 112 78 93 138 152 154 148 132 114 104 103 101 93 95 109 130 155 168 169 167 166 169 171 169 176 189 192 195 198 195 192 185 182 185 180 172 172 167 154 160 172 185 209 209 199 186 180 164 151 154 154 150 133 117 95 76 65 66 69 66 58 53 50 46 46 48 50 51
57 73 79 58 205 16 290 184 175 153 142 187 191 115 120 149 304 155 53 63 85 65 59 53 50 72 98 113 112 97 93 100 117 126 126 132 125 107 97 96 95 82 79 87 105 139 160 169 174 176 172 171 165 162 168 167 187 192 189 197 192 189 184 180 178 183 188 176 170 156 147 191 190 195 175 161 161 155 158 158 151 143 132 111 86 72 76 78 72 60 53 54 49 43 43 45 48
73 101 81 180 185 31 313 123 96 118 146 169 138 94 120 159 172 107 103 112 112 84 66 73 74 78 93 104 105 97 92 92 99 102 96 95 93 85 80 78 77 70 66 63 74 139 160 168 177 182 178 174 167 160 149 137 153 168 178 188 182 190 190 185 186 190 195 193 184 161 161 198 202 215 195 166 161 153 154 160 156 146 131 114 95 84 86 85 78 69 57 55 50 44 41 42 45
85 99 77 249 191 79 5 62 68 108 141 134 108 86 109 173 173 111 154 134 114 126 151 140 131 138 127 109 104 100 90 86 88 90 86 82 79 75 73 69 64 60 56 56 37 216 180 178 180 182 181 176 167 161 147 134 149 159 170 173 167 178 183 188 195 196 196 197 193 170 165 195 202 209 188 159 159 158 158 162 160 146 128 122 113 101 99 95 89 86 74 60 52 47 45 44 42
60 99 140 223 161 88 349 65 74 65 104 122 133 88 89 240 184 124 143 118 103 194 203 190 165 155 149 133 107 102 94 87 86 85 83 81 78 75 75 73 71 61 42 86 281 289 146 167 180 181 180 176 168 159 147 136 159 175 175 169 168 170 174 180 186 189 190 197 202 185 177 187 182 181 163 143 158 171 173 162 154 153 138 134 134 116 110 110 110 114 104 76 61 57 50 45 41
65 84 163 185 100 111 251 101 67 52 86 102 110 97 125 227 353 146 143 162 218 194 179 150 141 144 147 138 115 104 98 92 90 90 88 87 84 79 78 75 77 57 29 17 331 40 100 127 165 183 177 172 165 155 147 144 158 172 170 166 171 169 173 180 180 180 180 181 185 182 185 186 170 157 145 148 157 165 172 161 148 161 151 145 150 134 128 123 118 126 119 90 70 66 56 43 34
96 292 65 40 77 134 208 116 63 80 88 93 124 148 149 81 312 219 146 186 196 155 143 127 125 134 133 125 117 109 108 107 101 99 98 99 92 84 79 70 66 52 44 38 37 70 92 101 118 166 171 167 158 147 149 155 153 159 158 161 165 158 156 164 169 168 163 159 155 161 171 166 154 149 148 158 161 152 161 161 148 160 164 164 170 167 158 125 112 122 125 102 83 70 56 39 25
99 240 352 10 73 125 155 157 137 98 109 151 129 115 144 140 229 114 125 191 156 134 130 129 131 127 122 117 117 119 121 118 111 105 102 101 97 93 87 73 69 65 62 57 59 71 79 86 92 135 155 157 153 150 158 156 150 150 150 153 152 147 145 145 150 152 150 146 142 144 152 150 145 146 147 153 161 157 156 154 147 157 169 171 174 176 162 136 125 126 127 111 94 74 49 36 28
78 126 284 326 35 155 157 153 150 137 166 170 96 113 225 187 189 168 174 181 150 138 129 130 131 118 118 121 123 123 117 118 117 110 102 100 100 100 93 84 84 77 71 67 68 71 74 84 95 131 148 154 158 164 161 151 149 147 143 144 142 142 141 135 137 139 136 133 131 133 137 138 135 137 135 133 147 151 146 145 145 153 161 163 172 170 157 152 145 129 122 118 111 99 72 51 35
197 146 285 326 282 224 163 158 174 182 203 147 108 259 263 232 194 261 194 172 160 138 136 140 127 116 122 126 130 126 115 114 119 115 105 99 99 98 93 92 91 82 80 79 74 72 81 95 108 129 145 153 160 161 152 144 144 143 137 134 134 134 130 128 132 129 126 124 122 125 130 132 126 123 122 122 133 138 140 143 140 143 147 150 164 162 154 163 157 134 126 132 144 129 103 96 65
203 108 351 290 265 264 180 188 201 185 212 176 163 234 276 294 200 243 200 165 160 137 147 154 129 133 136 123 126 126 117 110 119 120 107 95 92 96 97 98 94 90 93 90 80 80 97 109 113 126 137 146 154 152 145 139 136 136 131 128 127 125 123 126 131 127 124 120 114 117 119 122 122 120 120 123 130 134 138 138 131 131 130 126 135 136 127 122 118 117 123 135 153 146 115 129 110
145 86 347 299 286 291 224 210 211 165 214 185 159 218 292 8 251 226 177 160 159 146 158 161 140 149 144 132 126 122 118 115 123 122 110 104 104 105 108 108 106 102 95 90 89 100 113 117 118 127 135 143 150 145 141 137 130 130 129 128 125 122 123 127 126 123 122 118 116 118 115 117 122 124 124 126 130 130 130 129 124 119 113 109 113 115 109 100 99 98 97 103 123 133 124 126 121
101 90 349 301 335 315 240 218 193 156 188 172 135 335 294 222 238 212 152 157 157 149 161 166 156 158 150 142 133 127 124 122 124 122 120 124 124 124 121 117 118 109 95 97 107 115 118 122 124 128 134 140 144 140 137 135 130 130 129 127 126 125 128 128 123 120 121 122 125 125 125 126 127 129 130 131 131 127 123 122 119 112 106 108 108 108 107 103 104 100 93 93 100 109 109 103 108
333 68 139 308 359 318 255 213 166 154 168 152 129 312 272 244 243 176 152 159 149 152 174 176 165 162 158 151 140 140 135 129 129 129 132 135 134 136 133 129 130 118 104 106 118 123 125 129 130 132 135 139 142 139 135 132 130 132 131 128 129 133 135 130 123 121 122 123 124 123 126 128 127 127 128 128 125 121 117 113 108 104 100 99 95 95 99 99 100 93 86 88 88 85 78 70 57
326 348 48 9 17 288 294 174 153 157 205 127 116 224 261 272 256 190 178 169 156 165 184 182 174 171 167 161 151 150 145 140 138 137 137 137 137 139 137 135 134 128 116 112 120 128 132 135 136 137 136 137 140 140 137 136 134 135 134 130 133 135 133 129 123 122 122 120 120 118 118 120 120 120 122 124 119 115 113 108 104 102 100 98 93 92 95 93 89 82 74 72 72 67 58 49 49
51 36 320 334 169 267 313 63 157 158 224 118 121 204 267 273 230 194 194 182 170 174 187 187 182 179 174 171 161 154 151 143 140 142 142 141 143 143 140 138 135 134 128 122 126 132 133 137 143 147 146 140 138 139 140 140 138 137 134 130 132 131 126 124 122 122 122 121 120 117 116 119 119 119 121 123 120 115 112 108 106 107 107 104 100 97 93 84 77 73 67 59 58 55 49 48 53
350 133 252 262 180 269 315 294 200 154 132 184 188 218 269 270 206 190 196 192 186 184 195 195 188 186 179 176 169 162 156 146 143 145 145 145 147 147 143 140 139 138 139 139 135 133 131 134 141 145 148 146 140 137 136 135 133 132 130 127 128 127 123 122 121 122 122 122 121 118 118 119 119 119 120 121 119 113 110 108 107 109 108 104 100 94 86 77 70 71 67 61 59 59 58 55 56
312 179 239 250 207 228 276 286 264 147 137 201 226 236 253 260 202 193 202 192 192 201 203 200 192 188 183 177 172 169 165 161 160 151 148 152 152 151 147 144 143 138 140 146 141 135 131 135 140 138 139 142 140 134 130 130 130 128 126 125 126 124 121 121 121 122 120 120 119 118 119 118 116 116 116 116 114 110 108 107 106 108 108 103 98 92 86 80 75 73 69 66 63 62 59 52 57
203 191 217 265 258 231 221 255 236 158 162 199 202 239 255 261 236 209 212 194 199 215 210 204 196 186 184 183 176 176 173 172 169 157 153 159 155 153 151 148 146 139 137 143 143 139 134 135 137 133 131 135 136 131 128 128 128 128 127 125 124 121 119 120 120 120 118 119 118 118 119 116 115 114 112 112 110 109 107 106 106 107 107 106 100 93 87 83 80 75 70 68 66 65 58 55 70
176 180 174 205 251 272 238 239 220 165 169 219 206 223 246 253 248 225 217 202 207 224 225 214 202 189 186 187 183 180 176 172 165 157 157 161 158 156 154 152 150 143 139 139 138 137 133 132 133 129 128 131 133 130 128 127 126 128 127 124 121 118 118 119 118 118 118 118 119 119 119 116 115 114 112 112 110 108 106 104 105 105 107 106 99 92 84 79 78 74 70 66 64 66 60 59 74
211 220 216 211 218 269 268 254 246 156 152 237 222 225 246 250 250 236 212 200 212 225 229 220 203 195 193 190 188 180 172 161 155 156 159 162 161 160 156 154 153 146 141 140 137 135 134 134 134 131 131 134 135 135 133 134 134 132 128 124 121 118 120 120 116 117 118 118 119 119 118 117 117 114 112 112 109 107 104 102 101 100 101 99 94 92 87 81 75 72 70 64 60 61 58 56 66
244 244 252 258 231 254 272 263 257 156 170 258 253 248 258 253 253 247 195 186 215 216 216 218 206 200 197 190 186 170 152 148 151 155 160 163 164 163 157 154 157 151 145 144 141 139 138 137 137 136 140 142 140 142 142 142 141 139 134 129 125 121 121 122 118 117 119 119 119 118 118 117 116 114 112 112 109 107 104 101 98 97 97 96 96 95 90 84 78 74 71 67 64 62 60 55 56
236 232 222 251 253 268 298 314 310 66 180 261 288 278 265 258 255 253 206 196 217 214 210 213 201 198 197 188 180 161 152 159 163 163 165 168 168 165 161 158 161 157 149 149 149 148 148 147 145 146 150 149 147 150 150 146 142 141 139 133 130 125 121 121 120 119 120 120 118 117 117 117 116 114 112 111 108 106 103 102 99 98 97 96 96 93 88 83 79 75 72 72 72 69 65 59 56
221 203 182 234 252 248 278 299 300 291 232 260 305 300 270 265 264 256 232 214 222 221 218 221 207 201 198 188 179 167 165 169 171 171 170 171 171 169 167 163 164 160 153 154 156 157 157 156 155 155 158 156 155 156 153 147 141 138 137 133 132 127 122 122 121 120 120 119 117 117 116 116 115 112 111 109 107 105 103 101 100 98 96 94 93 89 86 83 80 77 74 73 73 73 73 66 63
247 195 185 211 223 213 229 274 324 336 336 322 333 316 278 257 251 256 258 230 231 229 218 226 225 207 188 178 179 174 171 170 170 174 175 174 174 174 171 166 165 163 159 160 163 164 163 162 161 161 163 161 160 159 153 148 143 138 133 130 128 125 122 123 121 118 118 118 116 116 115 115 114 112 110 108 106 104 102 100 98 96 94 91 89 87 86 84 81 78 74 74 72 75 81 76 71
276 233 204 207 212 223 232 279 34 6 324 305 62 314 281 272 244 257 294 244 230 222 207 220 219 196 179 179 183 177 174 174 172 173 174 175 175 175 172 168 166 165 165 165 168 170 168 166 165 164 165 163 162 159 154 151 148 144 139 134 130 127 123 122 122 120 120 119 118 117 116 116 114 112 110 108 106 103 101 99 97 95 93 90 88 86 86 84 81 80 76 76 76 76 82 81 78
254 248 208 208 216 227 230 218 63 261 268 289 98 165 273 290 260 252 259 244 239 226 219 225 215 197 192 188 182 175 174 174 172 172 172 174 175 174 173 172 169 168 168 168 170 173 172 169 168 167 167 165 162 158 155 153 151 148 145 140 136 133 128 124 125 125 123 122 120 120 119 117 115 113 111 108 105 103 101 99 96 94 93 91 89 86 85 84 82 82 78 77 79 76 76 81 82
233 249 177 179 204 216 215 185 177 217 252 322 13 138 269 281 265 243 227 235 252 244 234 233 218 208 201 190 182 177 177 173 169 172 174 177 178 176 174 174 173 170 169 169 170 173 174 171 169 168 166 164 161 158 156 155 154 150 145 141 137 135 131 128 128 127 126 126 124 123 121 119 117 114 112 109 106 103 100 99 96 94 93 90 88 86 87 87 85 85 82 79 80 77 75 79 82
240 233 129 131 163 170 142 120 141 293 358 306 281 135 263 271 266 253 204 222 250 247 236 231 217 209 201 192 188 180 177 174 169 172 176 179 179 177 175 174 174 171 170 171 170 171 172 168 164 163 161 159 156 154 153 155 157 152 147 143 137 134 132 131 131 130 130 130 127 125 124 122 120 117 114 111 107 105 101 100 99 96 94 92 91 90 90 90 87 86 83 80 79 79 79 79 81
218 139 84 67 70 75 75 92 89 29 331 242 220 174 240 268 243 189 188 227 242 243 240 232 214 204 201 192 186 178 172 171 170 171 174 177 177 176 174 173 173 171 171 172 170 169 166 161 158 156 155 154 153 154 156 158 158 154 150 146 140 136 135 134 133 133 133 133 129 128 127 125 124 120 117 113 110 108 105 104 102 98 97 94 93 92 92 91 89 87 85 82 81 81 82 80 82
138 90 58 39 23 31 42 51 77 47 274 231 199 186 201 267 262 186 203 223 221 227 244 239 205 197 200 192 183 178 170 167 168 167 170 174 174 173 172 170 170 171 171 171 170 168 165 159 156 155 156 158 159 163 166 166 164 158 153 149 144 141 140 139 138 137 136 136 133 132 132 129 127 123 120 117 114 112 110 107 103 100 98 96 94 94 93 91 89 88 87 86 84 84 85 83 84
101 88 80 60 349 13 22 3 56 206 258 229 199 190 189 234 260 228 234 252 232 216 230 231 206 199 198 191 183 178 170 167 167 164 166 168 168 169 169 168 168 169 171 171 170 169 167 163 161 159 161 165 168 171 173 172 170 163 155 152 149 146 146 145 144 142 142 140 138 137 136 133 130 127 124 121 118 116 113 108 104 101 98 96 95 94 93 93 92 91 90 90 88 87 88 88 87
90 108 110 118 287 356 3 309 180 224 257 250 195 178 195 236 251 254 257 267 254 221 225 230 209 200 195 186 182 177 171 169 168 168 168 169 170 170 170 169 169 170 172 172 171 171 169 168 167 165 165 169 172 174 175 174 174 167 159 155 153 151 151 150 148 146 146 144 142 141 139 137 134 132 129 125 123 121 115 110 106 101 98 96 95 95 95 95 95 93 90 90 89 88 88 86 84
146 141 138 155 181 261 262 245 256 255 266 283 185 160 230 270 266 244 245 257 256 232 247 244 210 195 190 182 176 173 173 173 172 172 171 175 176 175 174 171 170 172 173 173 172 172 171 171 172 169 168 171 174 176 176 175 174 169 162 159 157 155 155 153 151 150 149 148 146 144 142 140 138 135 133 129 127 125 119 113 107 101 99 98 97 98 98 97 97 95 91 88 88 88 87 83 80
178 149 136 154 157 181 225 207 225 258 276 297 259 160 201 220 249 239 243 269 288 302 281 246 175 176 167 161 163 168 176 176 174 176 176 179 178 177 176 174 172 173 174 174 174 174 173 173 174 173 170 172 175 176 176 174 172 168 164 162 161 160 158 156 154 153 152 150 149 147 145 142 140 139 136 133 132 129 121 114 107 102 101 101 101 102 102 101 98 95 91 87 88 90 88 84 82
228 116 117 182 183 184 232 207 186 206 297 284 217 215 221 212 260 262 262 302 318 344 348 132 132 142 142 154 169 173 180 178 176 179 177 179 178 178 178 176 175 175 175 176 176 176 176 175 175 175 173 173 175 175 174 172 170 168 166 165 164 163 161 158 157 157 155 153 152 150 147 146 144 141 138 136 135 129 121 115 109 105 104 105 106 106 106 104 99 96 94 92 93 93 88 86 83
174 133 172 203 173 163 215 273 5 63 282 261 194 242 285 307 275 251 193 256 288 311 276 171 166 158 159 177 182 179 183 181 180 179 174 175 178 180 181 179 178 178 178 179 179 178 178 176 175 174 173 173 174 174 173 171 169 168 167 167 167 166 165 163 161 160 159 157 155 153 150 149 147 143 140 139 136 131 122 114 108 107 108 110 112 113 113 113 110 109 110 107 103 99 92 90 86
132 184 202 148 69 98 127 257 341 32 264 270 202 234 264 259 267 254 141 211 258 257 238 204 185 180 187 194 187 185 183 177 177 173 171 175 179 184 185 184 183 182 182 181 180 180 179 177 176 174 173 173 174 174 173 172 171 170 170 170 171 170 169 168 165 163 162 160 159 157 155 152 149 146 144 142 138 129 120 112 110 113 118 123 128 133 135 136 134 129 127 121 114 108 100 96 93
134 191 195 119 116 201 127 183 238 191 251 285 244 230 234 213 224 183 162 212 235 236 220 208 206 199 201 199 187 184 176 172 177 175 176 180 183 186 186 185 185 184 184 181 179 179 178 178 177 176 175 174 175 175 174 174 174 173 173 174 174 174 174 172 169 167 166 164 162 161 158 154 152 150 148 144 136 126 119 119 124 130 139 146 154 160 159 157 154 149 145 136 129 128 125 115 106
62 103 170 113 136 174 165 180 173 160 229 278 276 253 238 218 197 178 193 210 217 217 205 210 216 207 202 197 184 182 181 183 185 182 184 184 184 186 185 184 184 183 183 181 179 179 178 177 178 177 176 175 176 177 176 176 177 176 175 176 177 178 177 175 173 170 169 168 165 163 160 157 155 153 150 144 135 128 127 133 141 149 160 169 174 175 173 173 175 173 167 156 152 154 151 150 140
154 151 175 178 123 117 180 218 158 148 190 236 265 271 259 227 185 185 194 206 212 208 200 211 220 210 203 196 185 186 188 189 188 184 185 184 183 184 183 183 183 182 182 180 179 179 178 178 179 178 177 177 177 178 178 178 178 178 178 178 179 180 179 177 174 173 172 170 167 165 163 160 158 156 152 146 139 136 139 146 156 166 176 181 184 184 184 186 188 185 176 169 169 174 180 182 193
178 183 184 181 168 142 188 249 211 157 200 200 212 272 268 230 182 195 194 203 211 204 200 212 218 208 203 197 190 191 189 189 190 185 183 182 179 178 179 179 180 180 180 180 180 180 179 180 180 180 179 179 179 180 180 180 180 180 180 180 181 181 179 177 176 175 174 172 170 168 166 164 161 157 154 151 145 144 150 159 167 176 184 188 190 193 194 192 192 189 181 182 186 195 213 212 210